[[{"header":{"parameterUnit":"m.s-1","parameterCategory":2,"la1":30.2991,"la2":30.254,"lo1":-89.0895,"lo2":-89.0444,"dx":0.0017,"dy":0.0017,"nx":28,"ny":28,"refTime":"2023-01-10T15:00:00:Z","depth":"0","parameterNumber":2,"parameterNumberName":"U-component_of_CURRENTS"},"data":[0,0,0,0,0,0,0,0,0,0,0,0,0,0,0,0,0,0,0,0,0,0,0,0,0,0,0,0,0,0,0,0,0,0,0,0,0,0,0,0,0,0,0,0,0,0,0,0,0,0,0,0,0,0,0,0,0,0,0.3227,0.3229,0,0.3309,0.331,0.331,0.3327,0.3326,0.3326,0.3326,0.3344,0.3345,0.3345,0,0,0,0,0,0,0,0,0,0,0,0,0,0.3078,0.3081,0.3227,0.3229,0.323,0.3309,0.331,0.331,0.3327,0.3326,0.3326,0.3325,0.3344,0.3345,0.3346,0,0,0,0,0,0,0,0,0,0,0,0,0,0.3147,0.3081,0.3227,0.325,0.3253,0.3309,0.331,0.3311,0.3327,0.3326,0.3326,0.3325,0.3343,0.3344,0.3346,0.3364,0,0,0.3349,0.335,0,0,0,0,0,0,0,0,0.3143,0.3152,0.3245,0.3248,0.3252,0.331,0.3264,0.3326,0.3327,0.3295,0.3326,0.3325,0.3329,0.3331,0.3344,0.3365,0.3365,0.3349,0.335,0.3351,0.3351,0,0,0,0,0,0,0,0.3138,0.3148,0.3257,0.3247,0.3251,0.3254,0.3262,0.3276,0.3311,0.3298,0.33,0.3314,0.333,0.3343,0.3345,0.3366,0.3349,0.3351,0.3351,0.3352,0.3427,0.3428,0,0,0,0,0,0,0.3136,0.3144,0.3254,0.3259,0.3198,0.3257,0.3267,0.3289,0.3312,0.3316,0.3315,0.3315,0.3341,0.3343,0.3345,0.3401,0.3351,0.3352,0.3353,0.3426,0.3427,0.3429,0,0,0,0,0,0,0.3132,0.3145,0.3251,0.3205,0.3219,0.326,0.3285,0.3291,0.3312,0.3326,0.3328,0.3331,0.3341,0.3344,0.3371,0.34,0.3352,0.3354,0.3424,0.3426,0.3428,0.349,0,0,0,0,0,0,0.3128,0.3143,0.3155,0.3206,0.3222,0.3288,0.3286,0.3293,0.3323,0.3324,0.334,0.3341,0.3341,0.3369,0.3372,0.3401,0.3355,0.3423,0.3425,0.3427,0.3486,0.3494,0.35,0,0,0,0,0,0.3122,0.3141,0.3156,0.3169,0.3238,0.3289,0.3297,0.3322,0.3324,0.3337,0.3353,0.3341,0.3386,0.3371,0.3374,0.3404,0.3421,0.3424,0.3427,0.3483,0.3492,0.35,0,0,0,0,0,0,0.3079,0.3146,0.3163,0.32,0.3244,0.3293,0.3307,0.3329,0.3354,0.3352,0.3359,0.3362,0.34,0.3391,0.3375,0.3432,0.3401,0.3405,0.3443,0.3451,0.3458,0.3449,0.3356,0,0,0,0,0,0.3078,0.3108,0.3171,0.3199,0.3222,0.3267,0.3289,0.3312,0.3344,0.3355,0.3368,0.3384,0.3414,0.3423,0.3441,0.347,0.3502,0.349,0.3497,0.3502,0.3498,0.3597,0.3613,0.3438,0.3438,0.3438,0,0,0.3069,0.3108,0.3126,0.3191,0.3224,0.3261,0.3278,0.3319,0.3346,0.3352,0.3382,0.341,0.3428,0.3468,0.3483,0.3463,0.3571,0.3506,0.3511,0.3503,0.3601,0.3619,0.3634,0.344,0.3439,0.3439,0,0,0.3067,0.3103,0.313,0.3167,0.3226,0.3258,0.3273,0.333,0.3349,0.3386,0.341,0.346,0.3476,0.3519,0.3536,0.3591,0.3609,0.3589,0.3615,0.3712,0.3728,0.3742,0.3817,0.3837,0.3588,0.3588,0.3588,0,0.3051,0.3098,0.3143,0.3177,0.3205,0.3257,0.3289,0.3324,0.3379,0.3404,0.3394,0.3487,0.3504,0.3588,0.3604,0.3609,0.3656,0.3584,0.3723,0.3738,0.3751,0.3825,0.3847,0.3592,0.3591,0.3591,0.3591,0,0.3074,0.3108,0.3126,0.3186,0.3221,0.3257,0.3315,0.3348,0.3374,0.3413,0.3491,0.354,0.3598,0.3618,0.3622,0.3731,0.3733,0.3729,0.3705,0.3773,0.3846,0.3867,0.3596,0.3595,0.3594,0.3593,0,0,0.3041,0.3127,0.3129,0.3152,0.3229,0.3256,0.3307,0.3373,0.3407,0.347,0.3527,0.361,0.3655,0.3679,0.3723,0.3795,0.3937,0.3795,0.3799,0.3875,0.4148,0.4102,0.4121,0.3964,0.3968,0.3971,0.4166,0,0.3042,0.3094,0.3142,0.3182,0.3213,0.3272,0.3312,0.3375,0.3425,0.3488,0.3578,0.3646,0.3676,0.3717,0.3808,0.3898,0.3993,0.3883,0.4065,0.407,0.4026,0.4144,0.3987,0.4143,0.4186,0.419,0.4193,0,0.3044,0.3079,0.3118,0.3179,0.3198,0.3227,0.3295,0.3344,0.345,0.3493,0.3602,0.3668,0.381,0.3808,0.4039,0.3969,0.4067,0.4132,0.4141,0.4087,0.4064,0.4079,0.418,0.4054,0.4225,0.4223,0.422,0,0.2986,0.3055,0.3079,0.3101,0.3184,0.3204,0.325,0.334,0.3379,0.3511,0.3551,0.3733,0.3813,0.398,0.4131,0.4099,0.4359,0.4338,0.4399,0.4396,0.4288,0.4269,0.4287,0.4513,0.4513,0.4512,0.4512,0,0.297,0.2982,0.3048,0.3062,0.3083,0.3157,0.3192,0.3265,0.3361,0.3421,0.3559,0.3641,0.3857,0.4021,0.4164,0.4356,0.4413,0.443,0.4458,0.4304,0.4285,0.4188,0.4096,0.4519,0.4518,0.4516,0.4515,0,0.2906,0.2954,0.2975,0.3042,0.3057,0.3069,0.314,0.3172,0.3276,0.336,0.3406,0.3595,0.3814,0.4026,0.429,0.4381,0.4449,0.4625,0.4418,0.4417,0.4315,0.4232,0.4147,0.4039,0.4724,0.4725,0.4725,0,0.2884,0.289,0.2933,0.2934,0.2962,0.299,0.3013,0.3117,0.3165,0.3333,0.3376,0.3588,0.3739,0.4102,0.4319,0.4587,0.445,0.4568,0.4477,0.431,0.424,0.4063,0.3964,0.4372,0.4369,0.4367,0.4365,0,0.2837,0.2844,0.286,0.2862,0.2873,0.2889,0.294,0.2957,0.3096,0.3169,0.3304,0.3428,0.3768,0.396,0.4286,0.4434,0.4307,0.4528,0.4423,0.4022,0.3765,0.3672,0.423,0.4346,0.4348,0.4349,0.435,0.4351,0.2788,0.278,0.2795,0.2783,0.2787,0.2788,0.2775,0.2847,0.2901,0.3006,0.3188,0.3331,0.3619,0.4046,0.4168,0.4227,0.42,0.4164,0.4102,0.3959,0.3757,0.426,0.4355,0.4357,0.4358,0.436,0.4361,0,0.2734,0.2731,0.2719,0.2698,0.2654,0.2696,0.272,0.2704,0.2728,0.2874,0.299,0.324,0.3437,0.3669,0.3869,0.3819,0.3688,0.3732,0.344,0.3387,0.3917,0.3802,0.3697,0.3697,0.3697,0.3698,0.3698,0.3698,0.2713,0.2684,0.267,0.2575,0.2545,0.2494,0.2486,0.2483,0.2555,0.2628,0.2734,0.2893,0.3176,0.3379,0.3399,0.3381,0.3155,0.3041,0.3037,0.3393,0.3427,0.3459,0.3332,0.3131,0.313,0.2396,0.239,0.2385]},{"header":{"parameterUnit":"m.s-1","parameterCategory":2,"la1":30.2991,"la2":30.254,"lo1":-89.0895,"lo2":-89.0444,"dx":0.0017,"dy":0.0017,"nx":28,"ny":28,"refTime":"2023-01-10T15:00:00:Z","depth":"0","parameterNumber":3,"parameterNumberName":"V-component_of_CURRENTS"},"data":[0,0,0,0,0,0,0,0,0,0,0,0,0,0,0,0,0,0,0,0,0,0,0,0,0,0,0,0,0,0,0,0,0,0,0,0,0,0,0,0,0,0,0,0,0,0,0,0,0,0,0,0,0,0,0,0,0,0,0.0364,0.0363,0,0.0291,0.029,0.0289,0.0235,0.0234,0.0234,0.0234,0.0142,0.014,0.0138,0,0,0,0,0,0,0,0,0,0,0,0,0,0.0437,0.0436,0.0364,0.0363,0.0362,0.0291,0.029,0.0289,0.0235,0.0234,0.0234,0.0233,0.0142,0.014,0.0137,0,0,0,0,0,0,0,0,0,0,0,0,0,0.0389,0.0436,0.0364,0.0327,0.0323,0.0292,0.029,0.0289,0.0235,0.0234,0.0234,0.0233,0.0143,0.014,0.0137,0.0132,0,0,0.0128,0.0127,0,0,0,0,0,0,0,0,0.0392,0.0386,0.0333,0.0329,0.0325,0.0272,0.0282,0.0236,0.0235,0.0268,0.0234,0.0233,0.0184,0.0178,0.0165,0.0128,0.0124,0.0128,0.0126,0.0125,0.0124,0,0,0,0,0,0,0,0.0395,0.0389,0.0335,0.0332,0.0327,0.0307,0.03,0.0273,0.023,0.0265,0.0261,0.0254,0.0181,0.0168,0.0163,0.0123,0.0128,0.0125,0.0123,0.0122,0.0087,0.0087,0,0,0,0,0,0,0.0406,0.0392,0.0337,0.0332,0.0357,0.0307,0.0298,0.0289,0.0231,0.0221,0.0254,0.0251,0.0174,0.0166,0.0159,0.0179,0.0125,0.0122,0.012,0.0086,0.0087,0.0088,0,0,0,0,0,0,0.0408,0.0402,0.034,0.0361,0.0352,0.0306,0.0296,0.0288,0.0275,0.0223,0.0213,0.025,0.0173,0.0163,0.0151,0.0174,0.012,0.0118,0.0085,0.0086,0.0087,0.0201,0,0,0,0,0,0,0.041,0.0403,0.0406,0.0362,0.0351,0.0345,0.0297,0.0287,0.0271,0.0267,0.0216,0.0206,0.0172,0.0156,0.0148,0.0169,0.0115,0.0084,0.0085,0.0087,0.0196,0.0206,0.0214,0,0,0,0,0,0.0413,0.0424,0.0407,0.04,0.0355,0.0346,0.034,0.0304,0.0272,0.0286,0.0246,0.0208,0.016,0.0155,0.0145,0.0166,0.0083,0.0085,0.0087,0.0192,0.0204,0.0214,0,0,0,0,0,0,0.0465,0.0418,0.0398,0.0396,0.0383,0.0338,0.034,0.0311,0.0288,0.0279,0.0222,0.0212,0.0205,0.0171,0.0166,0.0159,0.0114,0.0114,0.0197,0.0208,0.0217,0.0259,0.0113,0,0,0,0,0,0.0477,0.0466,0.0431,0.0432,0.0426,0.0383,0.0373,0.0352,0.0322,0.031,0.0273,0.0233,0.0206,0.0196,0.0166,0.0169,0.0147,0.0173,0.0182,0.019,0.0218,0.0204,0.0215,0.0094,0.0094,0.0094,0,0,0.0496,0.047,0.0464,0.0442,0.0421,0.0429,0.0376,0.0372,0.038,0.0304,0.0306,0.0263,0.0212,0.0213,0.0208,0.0189,0.0213,0.0193,0.02,0.0224,0.0207,0.0219,0.023,0.0096,0.0095,0.0095,0,0,0.0537,0.0509,0.0517,0.0509,0.0488,0.0468,0.0471,0.0437,0.0427,0.0423,0.0368,0.0353,0.0304,0.0288,0.0266,0.031,0.0257,0.0285,0.0374,0.036,0.037,0.0379,0.0371,0.0379,0.0296,0.0296,0.0296,0,0.0567,0.0563,0.0525,0.0535,0.0534,0.049,0.0513,0.0502,0.0471,0.0473,0.0441,0.0392,0.0346,0.0357,0.037,0.0334,0.0315,0.0338,0.0374,0.0383,0.039,0.0379,0.0386,0.0302,0.0301,0.03,0.03,0,0.0607,0.0611,0.0619,0.0612,0.0616,0.0628,0.0609,0.0615,0.0588,0.0571,0.0574,0.0526,0.0502,0.0479,0.0437,0.0467,0.0433,0.0384,0.0353,0.0409,0.0394,0.0399,0.031,0.0308,0.0306,0.0305,0,0,0.0651,0.0648,0.0651,0.0663,0.0655,0.0664,0.069,0.0702,0.0722,0.0699,0.0731,0.0688,0.0662,0.0639,0.0589,0.0583,0.0609,0.0516,0.0512,0.0522,0.0584,0.056,0.0562,0.0561,0.0562,0.0564,0.0555,0,0.0696,0.073,0.0719,0.0764,0.078,0.0764,0.0796,0.0803,0.0796,0.0819,0.0787,0.0787,0.0722,0.0716,0.0707,0.0629,0.0626,0.0616,0.0518,0.0516,0.0498,0.0569,0.0525,0.0513,0.0559,0.056,0.0561,0,0.0731,0.0749,0.0797,0.0834,0.0843,0.0871,0.091,0.0936,0.0955,0.0952,0.0961,0.0924,0.093,0.0854,0.0797,0.0791,0.071,0.0648,0.0645,0.0592,0.0501,0.0462,0.052,0.0304,0.0568,0.0567,0.0567,0,0.076,0.0803,0.0843,0.0851,0.0889,0.092,0.0948,0.0975,0.1007,0.1042,0.1068,0.1056,0.1054,0.0975,0.0861,0.0824,0.079,0.0711,0.0621,0.0617,0.0548,0.0537,0.04,0.0677,0.0677,0.0677,0.0677,0,0.0796,0.0831,0.0861,0.088,0.0946,0.0963,0.1034,0.1057,0.1109,0.1165,0.1144,0.1189,0.1081,0.1043,0.0922,0.0812,0.0838,0.0669,0.0626,0.0585,0.0578,0.0359,0.0269,0.0677,0.0677,0.0677,0.0677,0,0.0821,0.0835,0.0883,0.0934,0.0955,0.1004,0.1081,0.1131,0.1178,0.1257,0.1275,0.129,0.1247,0.1138,0.1012,0.0892,0.0676,0.0724,0.0695,0.065,0.0348,0.0268,0.0173,0.0112,0.0625,0.0625,0.0624,0,0.0837,0.0859,0.0915,0.0945,0.0972,0.1041,0.1091,0.1154,0.1213,0.132,0.1366,0.1367,0.139,0.123,0.1015,0.0833,0.0662,0.0651,0.057,0.0359,0.0236,0.0197,0.015,0.0518,0.0517,0.0516,0.0515,0,0.087,0.0882,0.0924,0.0978,0.1031,0.1103,0.1184,0.124,0.133,0.1415,0.1522,0.1561,0.1422,0.1251,0.1008,0.0843,0.0514,0.0623,0.0404,0.0165,0.0115,0.0025,0.0496,0.0506,0.0507,0.0508,0.0508,0.0509,0.0888,0.0926,0.0966,0.1021,0.1084,0.1168,0.1238,0.1335,0.1456,0.1614,0.1634,0.1735,0.1452,0.1125,0.0882,0.0376,0.0436,0.0196,0.0126,0.0113,0.003,0.05,0.0456,0.0457,0.0457,0.0458,0.0458,0,0.09,0.0948,0.1005,0.108,0.1149,0.1178,0.1303,0.1395,0.1547,0.1705,0.1818,0.1739,0.1356,0.095,0.0308,-0.0055,-0.0167,-0.0266,-0.0369,-0.0386,0.001,-0.0023,-0.0173,-0.0173,-0.0173,-0.0173,-0.0173,-0.0172,0.0912,0.0965,0.1,0.1113,0.1175,0.129,0.1367,0.1516,0.1656,0.1859,0.1942,0.1982,0.163,0.0452,-0.0386,-0.0572,-0.0786,-0.0827,-0.0904,-0.0713,-0.0678,-0.0643,-0.0701,-0.099,-0.0991,-0.1285,-0.1289,-0.1291]}],[{"header":{"parameterUnit":"m.s-1","parameterCategory":2,"la1":30.2991,"la2":30.254,"lo1":-89.0895,"lo2":-89.0444,"dx":0.0017,"dy":0.0017,"nx":28,"ny":28,"refTime":"2023-01-10T15:00:00:Z","depth":"2","parameterNumber":2,"parameterNumberName":"U-component_of_CURRENTS"},"data":[0,0,0,0,0,0,0,0,0,0,0,0,0,0,0,0,0,0,0,0,0,0,0,0,0,0,0,0,0,0,0,0,0,0,0,0,0,0,0,0,0,0,0,0,0,0,0,0,0,0,0,0,0,0,0,0,0,0,0.0713,0.0714,0,0.0759,0.076,0.0761,0.0831,0.0832,0.0833,0.0834,0.0877,0.0877,0.0877,0,0,0,0,0,0,0,0,0,0,0,0,0,0.0719,0.0719,0.0713,0.0714,0.0714,0.0759,0.076,0.0761,0.0831,0.0832,0.0833,0.0834,0.0877,0.0877,0.0877,0,0,0,0,0,0,0,0,0,0,0,0,0,0.0738,0.0718,0.0713,0.0753,0.0757,0.0759,0.076,0.0761,0.083,0.0832,0.0834,0.0835,0.0877,0.0877,0.0877,0.0847,0,0,0.0878,0.0878,0,0,0,0,0,0,0,0,0.0737,0.0738,0.0747,0.075,0.0754,0.0789,0.0778,0.0789,0.083,0.0805,0.0834,0.0836,0.0845,0.0848,0.0856,0.0849,0.0851,0.0878,0.0878,0.0878,0.0878,0,0,0,0,0,0,0,0.0735,0.0736,0.0734,0.0747,0.0751,0.0779,0.0784,0.078,0.0817,0.0807,0.0812,0.0813,0.0847,0.0855,0.0857,0.0851,0.0878,0.0878,0.0878,0.0878,0.1034,0.1038,0,0,0,0,0,0,0.0722,0.0735,0.0732,0.0735,0.0747,0.0778,0.0783,0.0778,0.0817,0.0824,0.0811,0.0816,0.0854,0.0857,0.0859,0.0999,0.0878,0.0878,0.0878,0.103,0.1035,0.1039,0,0,0,0,0,0,0.0721,0.0721,0.073,0.0735,0.0738,0.0775,0.077,0.0778,0.0828,0.082,0.0828,0.0858,0.0856,0.0859,0.091,0.0995,0.0878,0.0879,0.1025,0.1032,0.1037,0.1168,0,0,0,0,0,0,0.0721,0.072,0.0737,0.0733,0.0737,0.0766,0.0768,0.0778,0.0822,0.083,0.0861,0.0864,0.0857,0.091,0.091,0.0993,0.0879,0.102,0.1028,0.1035,0.1159,0.1178,0.1194,0,0,0,0,0,0.0721,0.0734,0.0737,0.0738,0.075,0.0767,0.0774,0.0807,0.0824,0.0856,0.0886,0.0866,0.0959,0.0912,0.0912,0.0997,0.1017,0.1026,0.1035,0.1151,0.1174,0.1194,0,0,0,0,0,0,0.0764,0.0742,0.0746,0.0757,0.0776,0.078,0.0819,0.0827,0.0875,0.0901,0.089,0.0897,0.0983,0.0967,0.0915,0.107,0.0995,0.1004,0.1083,0.1105,0.1122,0.1104,0.0879,0,0,0,0,0,0.0772,0.0766,0.0765,0.078,0.0798,0.0814,0.0833,0.0854,0.088,0.0905,0.0931,0.097,0.1012,0.1039,0.1067,0.1126,0.1101,0.1192,0.121,0.1225,0.1214,0.1254,0.1274,0.1069,0.1069,0.1069,0,0,0.0785,0.078,0.0775,0.0788,0.0812,0.0843,0.0833,0.0881,0.092,0.0899,0.0991,0.1026,0.1041,0.1129,0.1168,0.1131,0.1277,0.1236,0.1249,0.1229,0.1266,0.1285,0.1302,0.1075,0.1074,0.1073,0,0,0.0811,0.0819,0.0829,0.0851,0.0889,0.0897,0.0917,0.0956,0.1,0.1065,0.1086,0.1163,0.1216,0.1258,0.1277,0.1402,0.1367,0.1441,0.1515,0.1557,0.1572,0.1586,0.1596,0.1609,0.1453,0.1453,0.1454,0,0.0837,0.0847,0.0843,0.0877,0.0906,0.0925,0.0968,0.1004,0.1061,0.1107,0.1118,0.1251,0.1273,0.1371,0.1438,0.1441,0.1448,0.1429,0.1576,0.1589,0.1601,0.1607,0.162,0.1461,0.146,0.1459,0.1458,0,0.0868,0.0897,0.092,0.0954,0.0987,0.1033,0.107,0.1137,0.119,0.1223,0.135,0.1394,0.1481,0.152,0.1516,0.1639,0.1613,0.1589,0.1512,0.1629,0.1629,0.164,0.1471,0.1469,0.1466,0.1465,0,0,0.0883,0.0925,0.0944,0.097,0.1038,0.1059,0.1151,0.1224,0.1287,0.1379,0.1465,0.1582,0.1634,0.166,0.1696,0.173,0.1838,0.1713,0.1712,0.1703,0.1922,0.1869,0.1874,0.185,0.1852,0.1854,0.1893,0,0.0923,0.0974,0.0998,0.107,0.1104,0.116,0.1228,0.1304,0.138,0.1471,0.1551,0.1646,0.168,0.1748,0.1806,0.1823,0.1872,0.1828,0.1825,0.1824,0.1747,0.1887,0.1752,0.1773,0.1903,0.1905,0.1906,0,0.0961,0.0988,0.1053,0.1116,0.1142,0.1196,0.1314,0.1375,0.1497,0.1566,0.1693,0.1747,0.1869,0.1853,0.1964,0.1944,0.1961,0.1948,0.1949,0.1852,0.1791,0.1677,0.1787,0.1924,0.1922,0.1921,0.192,0,0.0949,0.1032,0.1078,0.1104,0.1179,0.1247,0.1306,0.1425,0.1492,0.1639,0.1708,0.1847,0.1931,0.1981,0.2039,0.2014,0.2102,0.2055,0.2013,0.2007,0.1862,0.184,0.2118,0.2118,0.2118,0.2117,0.2117,0,0.0955,0.1008,0.1085,0.11,0.1191,0.1252,0.1364,0.1444,0.1565,0.165,0.1773,0.1867,0.1971,0.2048,0.2065,0.2099,0.2151,0.2044,0.203,0.1907,0.189,0.1983,0.1967,0.2119,0.2119,0.2118,0.2118,0,0.0927,0.0978,0.1031,0.1124,0.1179,0.1242,0.1387,0.1449,0.1577,0.1693,0.1748,0.191,0.2025,0.2092,0.216,0.2135,0.2147,0.2138,0.1979,0.1946,0.2005,0.1996,0.2078,0.2077,0.2076,0.2075,0.2075,0,0.0904,0.0927,0.1031,0.108,0.1137,0.1252,0.1327,0.1459,0.1518,0.1716,0.1749,0.1919,0.2012,0.2099,0.2089,0.2099,0.2164,0.1972,0.1893,0.2032,0.2009,0.2002,0.1994,0.1756,0.1753,0.175,0.1748,0,0.086,0.0909,0.0939,0.1036,0.1126,0.1218,0.133,0.1376,0.1524,0.1624,0.1767,0.1856,0.1961,0.1944,0.1965,0.1936,0.1957,0.1914,0.2135,0.1785,0.1731,0.1707,0.171,0.1724,0.1726,0.1728,0.1729,0.173,0.0835,0.0864,0.0913,0.1006,0.1089,0.1173,0.1232,0.132,0.1417,0.1534,0.1668,0.1765,0.1788,0.1754,0.1728,0.1723,0.1801,0.1738,0.1745,0.1756,0.171,0.1657,0.1626,0.1628,0.163,0.1631,0.1632,0,0.084,0.0888,0.09,0.0994,0.1022,0.114,0.1222,0.1241,0.1323,0.1445,0.1555,0.1456,0.1473,0.155,0.1488,0.1451,0.141,0.143,0.1394,0.1417,0.1439,0.1376,0.1204,0.1203,0.1202,0.1201,0,0,0.0849,0.0856,0.085,0.0904,0.1001,0.108,0.1134,0.1156,0.1217,0.1221,0.1293,0.141,0.1503,0.134,0.1304,0.1285,0.1343,0.1234,0.1576,0.1559,0.158,0.1612,0.1543,0,0,0,0,0]},{"header":{"parameterUnit":"m.s-1","parameterCategory":2,"la1":30.2991,"la2":30.254,"lo1":-89.0895,"lo2":-89.0444,"dx":0.0017,"dy":0.0017,"nx":28,"ny":28,"refTime":"2023-01-10T15:00:00:Z","depth":"2","parameterNumber":3,"parameterNumberName":"V-component_of_CURRENTS"},"data":[0,0,0,0,0,0,0,0,0,0,0,0,0,0,0,0,0,0,0,0,0,0,0,0,0,0,0,0,0,0,0,0,0,0,0,0,0,0,0,0,0,0,0,0,0,0,0,0,0,0,0,0,0,0,0,0,0,0,-0.0413,-0.0413,0,-0.0444,-0.0444,-0.0445,-0.0473,-0.0474,-0.0474,-0.0474,-0.0578,-0.058,-0.0583,0,0,0,0,0,0,0,0,0,0,0,0,0,-0.0336,-0.0338,-0.0413,-0.0413,-0.0413,-0.0444,-0.0444,-0.0445,-0.0473,-0.0474,-0.0474,-0.0474,-0.0577,-0.058,-0.0583,0,0,0,0,0,0,0,0,0,0,0,0,0,-0.037,-0.0338,-0.0413,-0.043,-0.0432,-0.0444,-0.0444,-0.0445,-0.0473,-0.0474,-0.0474,-0.0474,-0.0576,-0.058,-0.0584,-0.0601,0,0,-0.0595,-0.0597,0,0,0,0,0,0,0,0,-0.0368,-0.0373,-0.0427,-0.0429,-0.0431,-0.0454,-0.0455,-0.05,-0.0473,-0.0459,-0.0474,-0.0474,-0.0542,-0.0549,-0.0555,-0.0606,-0.061,-0.0596,-0.0598,-0.06,-0.0601,0,0,0,0,0,0,0,-0.0366,-0.0372,-0.0427,-0.0427,-0.043,-0.0422,-0.0427,-0.0463,-0.0501,-0.046,-0.0462,-0.0463,-0.0544,-0.0551,-0.0558,-0.0612,-0.0596,-0.0599,-0.0601,-0.0603,-0.0714,-0.0714,0,0,0,0,0,0,-0.0361,-0.037,-0.0426,-0.0427,-0.0398,-0.0423,-0.0429,-0.0447,-0.0499,-0.0506,-0.0463,-0.0464,-0.0544,-0.0553,-0.0561,-0.0595,-0.06,-0.0603,-0.0605,-0.0713,-0.0714,-0.0714,0,0,0,0,0,0,-0.036,-0.0367,-0.0424,-0.0397,-0.0403,-0.0424,-0.0444,-0.0448,-0.0465,-0.05,-0.0509,-0.0477,-0.0545,-0.0556,-0.0607,-0.0599,-0.0605,-0.0608,-0.0712,-0.0713,-0.0714,-0.0656,0,0,0,0,0,0,-0.0358,-0.0366,-0.0382,-0.0397,-0.0405,-0.0433,-0.0443,-0.0448,-0.0464,-0.0467,-0.0515,-0.0524,-0.0546,-0.0602,-0.0611,-0.0604,-0.0611,-0.0711,-0.0713,-0.0714,-0.0657,-0.0655,-0.0653,0,0,0,0,0,-0.0355,-0.0368,-0.0383,-0.0389,-0.0425,-0.0433,-0.0436,-0.0452,-0.0464,-0.047,-0.0511,-0.0523,-0.0616,-0.0606,-0.0617,-0.061,-0.0711,-0.0712,-0.0714,-0.0658,-0.0655,-0.0653,0,0,0,0,0,0,-0.0341,-0.0372,-0.0389,-0.0412,-0.0424,-0.0437,-0.0443,-0.0457,-0.0492,-0.05,-0.0538,-0.055,-0.0589,-0.0617,-0.0605,-0.0648,-0.0663,-0.0667,-0.0617,-0.0614,-0.0612,-0.0586,-0.0615,0,0,0,0,0,-0.0346,-0.0363,-0.0389,-0.0403,-0.0414,-0.0433,-0.044,-0.045,-0.0477,-0.0493,-0.0527,-0.0568,-0.0601,-0.0622,-0.0658,-0.0687,-0.0708,-0.0691,-0.0688,-0.0686,-0.0674,-0.0717,-0.0717,-0.0719,-0.0719,-0.0719,0,0,-0.034,-0.0361,-0.0369,-0.0401,-0.0414,-0.0416,-0.0439,-0.0448,-0.0447,-0.05,-0.0524,-0.0566,-0.0611,-0.0638,-0.0657,-0.0661,-0.0695,-0.0688,-0.0685,-0.0674,-0.0719,-0.0718,-0.0718,-0.072,-0.072,-0.072,0,0,-0.0317,-0.0361,-0.036,-0.0376,-0.0395,-0.0407,-0.0412,-0.0436,-0.045,-0.048,-0.0514,-0.0551,-0.061,-0.0627,-0.0646,-0.0658,-0.0686,-0.0676,-0.0638,-0.0681,-0.068,-0.068,-0.0692,-0.0694,-0.0671,-0.067,-0.067,0,-0.0308,-0.0318,-0.0358,-0.036,-0.0363,-0.0402,-0.0391,-0.0412,-0.0447,-0.0452,-0.0484,-0.0556,-0.0596,-0.0614,-0.0618,-0.0648,-0.0675,-0.0639,-0.0675,-0.0676,-0.0677,-0.069,-0.0692,-0.0668,-0.0668,-0.0668,-0.0669,0,-0.028,-0.0292,-0.0292,-0.031,-0.0321,-0.032,-0.0349,-0.0365,-0.0394,-0.0409,-0.0447,-0.0509,-0.0539,-0.0567,-0.0598,-0.0618,-0.0635,-0.0668,-0.0673,-0.0672,-0.0687,-0.069,-0.0664,-0.0665,-0.0666,-0.0666,0,0,-0.0245,-0.0265,-0.0267,-0.0257,-0.0294,-0.0289,-0.0302,-0.0309,-0.0297,-0.036,-0.035,-0.0427,-0.0454,-0.0479,-0.0525,-0.0573,-0.0601,-0.0621,-0.0625,-0.0617,-0.068,-0.0659,-0.0661,-0.0649,-0.065,-0.065,-0.0682,0,-0.0206,-0.0187,-0.0212,-0.0185,-0.0177,-0.0216,-0.0211,-0.0227,-0.0257,-0.0262,-0.0331,-0.0348,-0.0421,-0.0432,-0.049,-0.0571,-0.0611,-0.0588,-0.0696,-0.0698,-0.0667,-0.0665,-0.0639,-0.0663,-0.0685,-0.0686,-0.0686,0,-0.0172,-0.0161,-0.0131,-0.0109,-0.0108,-0.0099,-0.0092,-0.009,-0.0119,-0.0141,-0.0182,-0.0234,-0.029,-0.0363,-0.0493,-0.048,-0.0568,-0.0646,-0.065,-0.065,-0.0684,-0.0673,-0.0668,-0.0692,-0.0692,-0.0691,-0.0691,0,-0.012,-0.01,-0.0068,-0.0069,-0.006,-0.0045,-0.0035,-0.0053,-0.0027,-0.006,-0.0047,-0.0138,-0.0153,-0.0302,-0.0441,-0.0476,-0.0587,-0.065,-0.0712,-0.071,-0.0717,-0.0715,-0.0744,-0.0744,-0.0744,-0.0744,-0.0744,0,-0.0077,-0.0049,-0.0038,-0.0024,0.0037,0.002,0.0079,0.0067,0.0082,0.0137,0.0031,0.0056,-0.0144,-0.0226,-0.0396,-0.0539,-0.0544,-0.0694,-0.0719,-0.0695,-0.0691,-0.0746,-0.0746,-0.0745,-0.0745,-0.0745,-0.0744,0,-0.0033,-0.0035,0.0014,0.0042,0.0057,0.01,0.0163,0.0213,0.0206,0.0274,0.0274,0.0215,0.011,-0.0084,-0.0289,-0.0439,-0.0609,-0.0659,-0.0597,-0.0615,-0.072,-0.0717,-0.0746,-0.0746,-0.0745,-0.0745,-0.0745,0,-0.0011,0.0015,0.0068,0.0107,0.012,0.0185,0.024,0.0265,0.0329,0.0383,0.0433,0.0369,0.0326,0.005,-0.0221,-0.049,-0.0543,-0.0628,-0.07,-0.0699,-0.0722,-0.0719,-0.0716,-0.0685,-0.0684,-0.0683,-0.0683,0,0.0042,0.0058,0.0103,0.0183,0.0243,0.0335,0.0416,0.0489,0.0545,0.06,0.069,0.0658,0.0414,0.0154,-0.0203,-0.0385,-0.0593,-0.0624,-0.0642,-0.0681,-0.0643,-0.0664,-0.0663,-0.0678,-0.0678,-0.0678,-0.0679,-0.0679,0.0086,0.0139,0.0201,0.0282,0.0361,0.0486,0.0577,0.0681,0.0803,0.0871,0.0852,0.0781,0.046,-0.001,-0.0253,-0.0495,-0.0542,-0.0671,-0.0673,-0.0676,-0.0656,-0.0619,-0.0644,-0.0644,-0.0644,-0.0644,-0.0645,0,0.0155,0.022,0.03,0.0412,0.0524,0.0546,0.0704,0.0803,0.0965,0.0963,0.0988,0.0657,0.0361,0.0057,-0.0307,-0.0562,-0.0586,-0.0611,-0.0611,-0.0616,-0.062,-0.0597,-0.057,-0.057,-0.057,-0.0569,0,0,0.0197,0.0295,0.0346,0.054,0.0623,0.0786,0.0883,0.1024,0.1075,0.1032,0.094,0.0752,0.0389,0.0121,-0.0198,-0.0355,-0.0413,-0.0377,-0.0422,-0.0389,-0.0389,-0.0652,-0.0622,0,0,0,0,0]}],[{"header":{"parameterUnit":"m.s-1","parameterCategory":2,"la1":30.2991,"la2":30.254,"lo1":-89.0895,"lo2":-89.0444,"dx":0.0017,"dy":0.0017,"nx":28,"ny":28,"refTime":"2023-01-10T15:00:00:Z","depth":"4","parameterNumber":2,"parameterNumberName":"U-component_of_CURRENTS"},"data":[0,0,0,0,0,0,0,0,0,0,0,0,0,0,0,0,0,0,0,0,0,0,0,0,0,0,0,0,0,0,0,0,0,0,0,0,0,0,0,0,0,0,0,0,0,0,0,0,0,0,0,0,0,0,0,0,0,0,0.0347,0.0347,0,0.0362,0.0362,0.0362,0.0365,0.0365,0.0365,0.0366,0.037,0.037,0.037,0,0,0,0,0,0,0,0,0,0,0,0,0,0.0298,0.0299,0.0347,0.0347,0.0348,0.0362,0.0362,0.0362,0.0365,0.0365,0.0365,0.0366,0.037,0.037,0.037,0,0,0,0,0,0,0,0,0,0,0,0,0,0.0312,0.0299,0.0347,0.0355,0.0356,0.0362,0.0362,0.0362,0.0365,0.0365,0.0366,0.0366,0.037,0.037,0.037,0.0359,0,0,0.0369,0.0369,0,0,0,0,0,0,0,0,0.0312,0.0314,0.0353,0.0354,0.0356,0.0366,0.0347,0.0362,0.0364,0.0356,0.0366,0.0366,0.0371,0.0371,0.0366,0.0359,0.0359,0.0369,0.0369,0.0369,0.0369,0,0,0,0,0,0,0,0.0311,0.0313,0.0348,0.0354,0.0355,0.0351,0.0353,0.0349,0.0357,0.0357,0.0358,0.0368,0.0371,0.0366,0.0366,0.0359,0.0369,0.0369,0.0369,0.0369,0.0385,0.0385,0,0,0,0,0,0,0.0319,0.0312,0.0347,0.0349,0.034,0.0352,0.0354,0.0358,0.0357,0.0359,0.0367,0.0368,0.0366,0.0366,0.0366,0.04,0.0369,0.0369,0.0368,0.0384,0.0385,0.0385,0,0,0,0,0,0,0.0318,0.0322,0.0347,0.0335,0.0338,0.0353,0.0357,0.0359,0.0371,0.0366,0.0366,0.0382,0.0366,0.0366,0.0379,0.0399,0.0368,0.0368,0.0383,0.0384,0.0385,0.0438,0,0,0,0,0,0,0.0316,0.0321,0.0334,0.0335,0.034,0.0364,0.0357,0.0359,0.0378,0.0379,0.0378,0.0378,0.0367,0.0379,0.0379,0.0398,0.0368,0.0383,0.0384,0.0385,0.0436,0.0441,0.0445,0,0,0,0,0,0.0314,0.0324,0.0334,0.0339,0.0354,0.0365,0.0366,0.0374,0.0378,0.0386,0.0387,0.0379,0.0386,0.038,0.0379,0.0398,0.0382,0.0383,0.0385,0.0434,0.044,0.0445,0,0,0,0,0,0,0.0306,0.0326,0.0337,0.0352,0.0367,0.0367,0.038,0.0385,0.0391,0.0396,0.0386,0.0386,0.0401,0.0392,0.0386,0.0405,0.0382,0.0384,0.042,0.0426,0.043,0.044,0.0368,0,0,0,0,0,0.0312,0.0327,0.0344,0.0359,0.037,0.0379,0.0388,0.0394,0.0399,0.0402,0.0406,0.0405,0.0402,0.041,0.0402,0.0418,0.0408,0.0429,0.0433,0.0437,0.0444,0.0433,0.0437,0.039,0.039,0.039,0,0,0.0311,0.0328,0.0335,0.0359,0.0371,0.0386,0.0384,0.0403,0.0417,0.0402,0.0425,0.0421,0.0407,0.042,0.0427,0.0421,0.0451,0.0439,0.0443,0.0447,0.0435,0.0439,0.0443,0.0391,0.039,0.039,0,0,0.0312,0.0335,0.0348,0.0365,0.0395,0.0402,0.0413,0.0429,0.0441,0.046,0.045,0.046,0.0464,0.0458,0.0454,0.048,0.047,0.0484,0.0524,0.0514,0.0517,0.0521,0.0535,0.0539,0.0493,0.0493,0.0493,0,0.0313,0.0332,0.0353,0.0373,0.0391,0.0412,0.0428,0.044,0.0459,0.0471,0.0477,0.0484,0.0478,0.0485,0.0502,0.0491,0.0494,0.0505,0.052,0.0523,0.0525,0.0539,0.0543,0.0496,0.0496,0.0495,0.0495,0,0.032,0.0344,0.0355,0.0389,0.0409,0.0429,0.0454,0.0478,0.05,0.0509,0.0532,0.0529,0.0538,0.0538,0.0533,0.0551,0.0551,0.0522,0.0507,0.0534,0.0546,0.0549,0.05,0.0499,0.0498,0.0497,0,0,0.0297,0.035,0.0356,0.0379,0.0422,0.0437,0.0471,0.05,0.0523,0.0549,0.0572,0.0582,0.0594,0.059,0.0586,0.0588,0.0617,0.0578,0.0576,0.0596,0.0621,0.0625,0.0629,0.0594,0.0594,0.0595,0.063,0,0.0299,0.0336,0.0364,0.0401,0.0422,0.046,0.0488,0.052,0.0548,0.0576,0.0586,0.0608,0.0609,0.0627,0.0629,0.0612,0.0625,0.0612,0.0589,0.0589,0.0592,0.0631,0.0596,0.0632,0.0633,0.0633,0.0634,0,0.0296,0.0324,0.0362,0.0416,0.043,0.0459,0.0515,0.0545,0.0585,0.0609,0.0638,0.0648,0.0674,0.0661,0.0668,0.0664,0.0658,0.0643,0.0643,0.0629,0.0598,0.0594,0.0639,0.0638,0.0638,0.0638,0.0637,0,0.0271,0.0323,0.0357,0.0376,0.0436,0.0468,0.0508,0.0557,0.059,0.064,0.0668,0.0688,0.0713,0.0702,0.0704,0.069,0.0699,0.0663,0.0662,0.0663,0.0623,0.0619,0.0663,0.0663,0.0663,0.0663,0.0663,0,0.0261,0.0285,0.0353,0.0371,0.0416,0.0468,0.0521,0.0561,0.0619,0.0649,0.0694,0.0716,0.0726,0.0736,0.0719,0.0718,0.0715,0.0685,0.0673,0.0648,0.0646,0.0626,0.0622,0.0665,0.0664,0.0664,0.0664,0,0.0225,0.027,0.0308,0.0379,0.0408,0.0444,0.0536,0.0566,0.0635,0.0677,0.0702,0.0751,0.0775,0.0783,0.0768,0.0746,0.0729,0.0725,0.0733,0.0717,0.0698,0.0696,0.0728,0.0728,0.0729,0.0729,0.0729,0,0.0208,0.0227,0.0307,0.0338,0.0376,0.0442,0.0483,0.0565,0.0597,0.0684,0.0691,0.0755,0.0778,0.0777,0.0777,0.0774,0.0756,0.0758,0.0705,0.072,0.0705,0.0702,0.0699,0.073,0.073,0.073,0.073,0,0.0167,0.0204,0.0237,0.0306,0.0357,0.0408,0.0476,0.0503,0.0586,0.0644,0.0689,0.0723,0.0755,0.0764,0.0789,0.0767,0.0759,0.0761,0.0759,0.071,0.0723,0.0707,0.0704,0.0732,0.0731,0.0731,0.0731,0,0.0136,0.0149,0.0207,0.0268,0.0326,0.0371,0.0413,0.0469,0.0521,0.0622,0.0625,0.0689,0.0737,0.0761,0.0762,0.0775,0.0753,0.0721,0.072,0.0719,0.07,0.0715,0.0725,0,0,0,0,0,0.0102,0.0123,0.0168,0.0238,0.0298,0.0336,0.0404,0.0443,0.0519,0.0541,0.0595,0.0626,0.0677,0.0704,0.0714,0.0745,0.0743,0.0754,0.0702,0.0739,0.0738,0.0717,0,0,0,0,0,0,0.0083,0.0114,0.0149,0.0207,0.025,0.0308,0.0349,0.0397,0.0424,0.0502,0.053,0.0596,0.0644,0.0664,0.0701,0.0711,0.0671,0.0797,0.0797,0.074,0.0739,0.0737,0.0716,0,0,0,0,0]},{"header":{"parameterUnit":"m.s-1","parameterCategory":2,"la1":30.2991,"la2":30.254,"lo1":-89.0895,"lo2":-89.0444,"dx":0.0017,"dy":0.0017,"nx":28,"ny":28,"refTime":"2023-01-10T15:00:00:Z","depth":"4","parameterNumber":3,"parameterNumberName":"V-component_of_CURRENTS"},"data":[0,0,0,0,0,0,0,0,0,0,0,0,0,0,0,0,0,0,0,0,0,0,0,0,0,0,0,0,0,0,0,0,0,0,0,0,0,0,0,0,0,0,0,0,0,0,0,0,0,0,0,0,0,0,0,0,0,0,0.0082,0.0082,0,0.0036,0.0035,0.0035,-0.002,-0.0021,-0.0021,-0.0022,-0.018,-0.0184,-0.0187,0,0,0,0,0,0,0,0,0,0,0,0,0,0.0104,0.0104,0.0082,0.0082,0.0082,0.0036,0.0035,0.0034,-0.002,-0.0021,-0.0021,-0.0022,-0.0179,-0.0183,-0.0188,0,0,0,0,0,0,0,0,0,0,0,0,0,0.0078,0.0103,0.0083,0.005,0.0047,0.0036,0.0035,0.0034,-0.002,-0.0021,-0.0022,-0.0023,-0.0178,-0.0183,-0.0188,-0.0202,0,0,-0.0205,-0.0207,0,0,0,0,0,0,0,0,0.0079,0.0077,0.0056,0.0053,0.0049,0.0014,-0.0015,-0.005,-0.0019,0.0004,-0.0022,-0.0023,-0.0124,-0.0134,-0.0141,-0.021,-0.0216,-0.0205,-0.0209,-0.0211,-0.0213,0,0,0,0,0,0,0,0.0081,0.0078,0.0062,0.0055,0.0051,0.0031,0.0027,-0.0022,-0.0057,0.0002,-0.0002,-0.0004,-0.0127,-0.0136,-0.0146,-0.0219,-0.0205,-0.021,-0.0213,-0.0216,-0.0376,-0.0377,0,0,0,0,0,0,0.0093,0.008,0.0064,0.0061,0.0064,0.0032,0.0027,0.0025,-0.0055,-0.0066,-0.0003,-0.0006,-0.0126,-0.0139,-0.0152,-0.0242,-0.0211,-0.0216,-0.0219,-0.0375,-0.0376,-0.0377,0,0,0,0,0,0,0.0094,0.0092,0.0066,0.0071,0.0066,0.0033,0.0032,0.0025,-0.0006,-0.0056,-0.0071,-0.0029,-0.0127,-0.0144,-0.0218,-0.0246,-0.0219,-0.0223,-0.0374,-0.0375,-0.0377,-0.0379,0,0,0,0,0,0,0.0094,0.0093,0.0087,0.0072,0.0067,0.0046,0.0032,0.0025,-0.0003,-0.0009,-0.0083,-0.0097,-0.0129,-0.021,-0.0224,-0.0253,-0.0228,-0.0372,-0.0374,-0.0376,-0.0377,-0.038,-0.0383,0,0,0,0,0,0.0095,0.0094,0.0087,0.0085,0.0063,0.0046,0.004,0.0012,-0.0004,-0.0019,-0.0075,-0.0096,-0.0232,-0.0215,-0.0231,-0.0263,-0.0372,-0.0374,-0.0376,-0.0376,-0.038,-0.0382,0,0,0,0,0,0,0.0093,0.0089,0.008,0.0075,0.0057,0.0037,0.0022,0.0004,-0.0048,-0.0064,-0.0114,-0.0132,-0.0206,-0.0233,-0.0214,-0.0313,-0.0303,-0.0309,-0.0298,-0.0302,-0.0304,-0.0281,-0.0232,0,0,0,0,0,0.0095,0.0094,0.0081,0.0073,0.0066,0.0041,0.0027,0.0007,-0.0033,-0.0057,-0.0109,-0.0167,-0.0222,-0.0261,-0.0309,-0.0368,-0.0372,-0.0397,-0.04,-0.0402,-0.0393,-0.0412,-0.0415,-0.0385,-0.0385,-0.0385,0,0,0.0092,0.0089,0.0087,0.0073,0.0056,0.0042,0.0028,0.0003,-0.0022,-0.0068,-0.0132,-0.0182,-0.0239,-0.0304,-0.0339,-0.0335,-0.0415,-0.0404,-0.0406,-0.0396,-0.0415,-0.0418,-0.042,-0.0386,-0.0386,-0.0386,0,0,0.0089,0.0082,0.008,0.0068,0.0046,0.003,0.002,-0.0014,-0.0044,-0.0102,-0.0144,-0.0205,-0.0291,-0.0333,-0.0365,-0.041,-0.0425,-0.0435,-0.0437,-0.0456,-0.0458,-0.046,-0.0474,-0.0477,-0.0439,-0.0439,-0.0439,0,0.0082,0.0082,0.0073,0.0067,0.0055,0.0024,0.001,-0.002,-0.0079,-0.0106,-0.0126,-0.0245,-0.0299,-0.0368,-0.039,-0.0416,-0.0426,-0.0421,-0.0457,-0.0459,-0.0461,-0.0475,-0.0478,-0.0439,-0.0439,-0.0439,-0.0439,0,0.0082,0.0076,0.0072,0.0057,0.0039,0.0022,-0.0011,-0.0048,-0.0089,-0.0119,-0.0198,-0.0265,-0.0331,-0.0364,-0.0398,-0.0447,-0.0451,-0.0454,-0.0444,-0.0464,-0.0478,-0.0481,-0.044,-0.044,-0.044,-0.0439,0,0,0.0078,0.0075,0.0071,0.0065,0.0033,0.0019,-0.0024,-0.0066,-0.0096,-0.016,-0.0202,-0.0299,-0.033,-0.0367,-0.0418,-0.0443,-0.0478,-0.0459,-0.046,-0.0463,-0.0519,-0.0493,-0.0494,-0.0488,-0.0489,-0.0489,-0.0525,0,0.0075,0.0078,0.0067,0.0047,0.0042,0.0005,-0.0029,-0.0074,-0.0122,-0.0171,-0.0235,-0.0297,-0.0333,-0.0375,-0.0406,-0.0463,-0.0486,-0.0467,-0.0508,-0.0509,-0.0474,-0.0497,-0.0491,-0.0528,-0.0529,-0.0529,-0.053,0,0.0075,0.0078,0.0074,0.0052,0.0043,0.0021,-0.0033,-0.0068,-0.0135,-0.0172,-0.0232,-0.0281,-0.0352,-0.0368,-0.0451,-0.0439,-0.0478,-0.0509,-0.0511,-0.0484,-0.0488,-0.0504,-0.0536,-0.0535,-0.0535,-0.0534,-0.0534,0,0.0087,0.0077,0.0076,0.0071,0.0042,0.0019,-0.0011,-0.0071,-0.0101,-0.0173,-0.02,-0.0279,-0.0326,-0.0379,-0.0455,-0.0459,-0.0525,-0.0535,-0.0542,-0.0541,-0.0551,-0.0548,-0.0575,-0.0575,-0.0575,-0.0574,-0.0574,0,0.0092,0.0084,0.0084,0.0083,0.0068,0.0035,0.0001,-0.004,-0.0094,-0.0122,-0.0198,-0.0234,-0.0331,-0.0386,-0.0444,-0.0501,-0.0516,-0.054,-0.0548,-0.0553,-0.0551,-0.0553,-0.0551,-0.0576,-0.0575,-0.0575,-0.0575,0,0.0092,0.0098,0.0098,0.0082,0.0076,0.006,0.002,-0.0006,-0.0057,-0.0096,-0.0118,-0.0207,-0.0281,-0.0362,-0.0453,-0.0485,-0.0542,-0.0555,-0.055,-0.0557,-0.0549,-0.0547,-0.057,-0.0569,-0.0569,-0.0568,-0.0568,0,0.0091,0.0096,0.0105,0.011,0.01,0.0079,0.0062,0.0014,-0.0008,-0.0075,-0.009,-0.0173,-0.0234,-0.0333,-0.0423,-0.0519,-0.053,-0.0555,-0.0559,-0.0544,-0.0549,-0.0547,-0.0545,-0.0567,-0.0567,-0.0567,-0.0567,0,0.0079,0.0087,0.0093,0.0116,0.011,0.0104,0.0079,0.0073,0.0019,-0.0014,-0.0062,-0.0135,-0.0215,-0.0314,-0.0388,-0.0458,-0.0538,-0.055,-0.0551,-0.0555,-0.0541,-0.0546,-0.0544,-0.0565,-0.0565,-0.0565,-0.0565,0,0.0064,0.0071,0.0092,0.0107,0.0115,0.0115,0.0105,0.008,0.0057,-0.0002,-0.0012,-0.0112,-0.0175,-0.0282,-0.035,-0.0417,-0.0438,-0.0451,-0.0459,-0.0462,-0.0421,-0.0385,-0.0367,0,0,0,0,0,0.0047,0.0058,0.0077,0.0098,0.0112,0.0116,0.0107,0.0095,0.0068,0.0048,0.0018,-0.0053,-0.017,-0.0233,-0.0294,-0.0351,-0.0457,-0.0424,-0.0477,-0.0555,-0.0557,-0.0524,0,0,0,0,0,0,0.0035,0.005,0.0071,0.0089,0.0106,0.011,0.011,0.0095,0.0082,0.0054,-0.0007,-0.0049,-0.0167,-0.0127,-0.0287,-0.0313,-0.035,-0.0486,-0.0487,-0.0553,-0.0555,-0.0557,-0.0525,0,0,0,0,0]}]]